OBJECT F

Satellite information

Favourite Embed

Satellite Type and Status

UNKNOWNIN ORBIT

Key statistics

Satellite OBJECT F at a glance.

Uptime

2024

Days in orbit

Revolutions

≈ 15.0

Per day

Orbit

SSO

Sun Synchronous Orbit

Inclination

97.8

Latest

Satellite identification and parameters

Extended collection of information and parameters for OBJECT F.

Object identification

Identified? True

Debris? False

Object name: OBJECT F

International designator: 2019-093F

Object number (NORAD): 44884

Object ID (CCSDS): 44884

Country: TO BE DETERMINED/UNKNOWN (TBD)

Current information (Y/N): Y

RCS size: MEDIUM

Orbital parameters

Period: 96.23 minutes

Inclination: 97.8095 deg

SMA: 6956.103 km

Apoapsis: 586.23 km

Periapsis: 569.707 km

RAAN: 270.7436 deg

Eccentricy: 0.0011877

Argument of periapsis: 121.2357 deg

Mean anomaly: 239.0029 deg

Mean motion: 14.96420709 rev/day

Mean motion (dot): 0.00004383 rev/day2

B* drag term: 0.0003912 1/REarth

Two-line elements (TLE)

Creation date: July 4, 2025, 10:16 p.m.

Reference frame: TEME

Reference center: EARTH

Epoch: July 4, 2025, 6:48 p.m. UTC

TLE line 0: 0 OBJECT F

TLE line 1: 1 44884U 19093F 25185.78370645 .00004383 00000-0 39120-3 0 9997

TLE line 2: 2 44884 97.8095 270.7436 0011877 121.2357 239.0029 14.96420709300394

Live tracking on map

Real-time ground track for satellite OBJECT F.

In-orbit conjunctions

There are no conjunctions computed for OBJECT F, at the moment. Check back to stay up to date, as we update our databases every day.

Go to all conjunctions

Associated space launch

On April 24, 2015, China and Brazil have signed the agreement for the construction of CBERS-4A. It's a third satellite in the continuity to the CBERS program, and a sixth CBERS satellite to be constructed. The CBERS satellites enhance and complement the existing remote sensing systems in an effort to improve our knowledge about the Earth environment and resources.

OBJECT F was lifted into orbit during the mission ‘Long March 4B | CBERS-4A’, on board a Long March 4B space rocket.

The launch took place on Dec. 20, 2019, 3:22 a.m. from Launch Complex 9.

For more information about the launch, click the button.

Launch to space Long March 4B | CBERS-4A
Long March 4B | CBERS-4A

Agency: N/A

Status: Launch Successful

Launch date: Dec. 20, 2019, 3:22 a.m. UTC

Rocket: Long March 4B

Launch pad: Launch Complex 9

Location: Taiyuan Satellite Launch Center, People's Republic of China

...

Latest news about this satellite

News about space launch
Long March 4B lofts CBERS-04A and Ethiopia’s first satellite


Newsletter sign-up

Weekly statistics, charts and insights to help you stay on top of the space industry.